Hourly Weather Kraczkowa

Today, 19 January, Tuesday

Time Temperature Precipitation Wind Pressure Humidity
00:00 -13°C° 0 mm 2 mps 744 mmHg 85%
01:00 -13°C° 0 mm 2 mps 744 mmHg 83%
02:00 -13°C° 0 mm 3 mps 744 mmHg 85%
03:00 -13°C° 0 mm 3 mps 744 mmHg 87%
04:00 -12°C° 0 mm 4 mps 743 mmHg 89%
05:00 -12°C° 0.1 mm 4 mps 743 mmHg 90%
06:00 -12°C° 0.1 mm 5 mps 743 mmHg 92%
07:00 -12°C° 0.1 mm 5 mps 743 mmHg 93%
08:00 -11°C° 0.4 mm 6 mps 742 mmHg 93%
09:00 -11°C° 0.4 mm 6 mps 742 mmHg 93%
10:00 -10°C° 0.4 mm 6 mps 742 mmHg 92%
11:00 -10°C° 0.2 mm 6 mps 742 mmHg 92%
12:00 -9°C° 0.2 mm 6 mps 741 mmHg 92%
13:00 -9°C° 0.2 mm 7 mps 741 mmHg 92%
14:00 -9°C° 0.1 mm 6 mps 741 mmHg 90%
15:00 -9°C° 0.1 mm 6 mps 741 mmHg 89%
16:00 -9°C° 0.1 mm 6 mps 741 mmHg 88%
17:00 -9°C° 0 mm 6 mps 741 mmHg 86%
18:00 -10°C° 0 mm 6 mps 740 mmHg 85%
19:00 -10°C° 0 mm 6 mps 740 mmHg 84%
20:00 -9°C° 0 mm 6 mps 740 mmHg 86%
21:00 -9°C° 0 mm 6 mps 740 mmHg 88%
22:00 -8°C° 0 mm 6 mps 740 mmHg 90%
23:00 -8°C° 0.1 mm 6 mps 739 mmHg 88%

Tomorrow, 20 January, Wednesday

Time Temperature Precipitation Wind Pressure Humidity
00:00 -6°C° 0.1 mm 6 mps 739 mmHg 86%
01:00 -6°C° 0.1 mm 6 mps 739 mmHg 85%
02:00 -6°C° 0.2 mm 6 mps 739 mmHg 88%
03:00 -7°C° 0.2 mm 7 mps 738 mmHg 91%
04:00 -7°C° 0.2 mm 7 mps 738 mmHg 94%
05:00 -7°C° 0.7 mm 7 mps 738 mmHg 94%
06:00 -6°C° 0.7 mm 7 mps 738 mmHg 93%
07:00 -6°C° 0.7 mm 7 mps 738 mmHg 93%
08:00 -4°C° 0.3 mm 6 mps 738 mmHg 92%
09:00 -4°C° 0.3 mm 6 mps 739 mmHg 90%
10:00 -3°C° 0.3 mm 6 mps 739 mmHg 89%
11:00 -3°C° 0 mm 6 mps 739 mmHg 90%
12:00 -2°C° 0 mm 7 mps 739 mmHg 91%
13:00 -2°C° 0 mm 7 mps 739 mmHg 92%
14:00 -2°C° 0 mm 7 mps 739 mmHg 90%
15:00 -2°C° 0 mm 6 mps 739 mmHg 88%
16:00 -1°C° 0 mm 6 mps 738 mmHg 86%
17:00 -1°C° 0 mm 7 mps 739 mmHg 86%
18:00 -1°C° 0 mm 8 mps 739 mmHg 86%
19:00 -1°C° 0 mm 8 mps 739 mmHg 85%
20:00 -1°C° 0 mm 8 mps 739 mmHg 85%
21:00 -1°C° 0 mm 9 mps 739 mmHg 85%
22:00 0°C° 0 mm 9 mps 739 mmHg 85%
23:00 0°C° 0 mm 9 mps 738 mmHg 85%

Day after tomorrow, 21 January, Thursday

Time Temperature Precipitation Wind Pressure Humidity
00:00 0°C° 0 mm 9 mps 738 mmHg 85%
01:00 0°C° 0 mm 9 mps 738 mmHg 84%
02:00 0°C° 0 mm 9 mps 738 mmHg 84%
03:00 0°C° 0 mm 9 mps 738 mmHg 83%
04:00 0°C° 0 mm 9 mps 737 mmHg 82%
05:00 0°C° 0 mm 9 mps 737 mmHg 82%
06:00 0°C° 0 mm 9 mps 737 mmHg 82%
07:00 0°C° 0 mm 9 mps 737 mmHg 82%
08:00 0°C° 0 mm 9 mps 737 mmHg 84%
09:00 0°C° 0 mm 8 mps 737 mmHg 86%
10:00 +1°C° 0 mm 8 mps 737 mmHg 88%
11:00 +1°C° 0 mm 8 mps 736 mmHg 87%
12:00 +1°C° 0 mm 8 mps 736 mmHg 87%
13:00 +2°C° 0 mm 7 mps 736 mmHg 86%
14:00 +2°C° 0 mm 7 mps 736 mmHg 85%
15:00 +2°C° 0 mm 7 mps 735 mmHg 84%
16:00 0°C° 0 mm 7 mps 735 mmHg 82%
17:00 0°C° 0 mm 7 mps 735 mmHg 83%
18:00 +1°C° 0 mm 8 mps 735 mmHg 83%
19:00 +1°C° 0 mm 8 mps 735 mmHg 83%
20:00 +1°C° 0 mm 8 mps 734 mmHg 84%
21:00 +1°C° 0 mm 8 mps 734 mmHg 84%
22:00 +1°C° 0 mm 8 mps 734 mmHg 84%
23:00 +1°C° 0 mm 8 mps 734 mmHg 84%

22 January, Friday

Time Temperature Precipitation Wind Pressure Humidity
00:00 +1°C° 0 mm 8 mps 734 mmHg 83%
01:00 +1°C° 0 mm 8 mps 734 mmHg 83%
02:00 +1°C° 0 mm 8 mps 734 mmHg 84%
03:00 +1°C° 0 mm 8 mps 733 mmHg 84%
04:00 +1°C° 0 mm 8 mps 733 mmHg 84%
05:00 +2°C° 0 mm 7 mps 732 mmHg 85%
06:00 +2°C° 0 mm 7 mps 732 mmHg 85%
07:00 +2°C° 0 mm 6 mps 732 mmHg 85%
08:00 +2°C° 0 mm 7 mps 731 mmHg 84%
09:00 +2°C° 0 mm 8 mps 731 mmHg 83%
10:00 +4°C° 0 mm 8 mps 731 mmHg 82%
11:00 +3°C° 0 mm 9 mps 730 mmHg 81%
12:00 +3°C° 0 mm 9 mps 730 mmHg 80%
13:00 +5°C° 0 mm 10 mps 730 mmHg 79%
14:00 +5°C° 0 mm 9 mps 730 mmHg 80%
15:00 +3°C° 0 mm 9 mps 730 mmHg 81%
16:00 +4°C° 0 mm 8 mps 730 mmHg 82%
17:00 +4°C° 0 mm 8 mps 730 mmHg 83%
18:00 +4°C° 0 mm 7 mps 730 mmHg 84%
19:00 +4°C° 0 mm 6 mps 730 mmHg 85%
20:00 +3°C° 0.1 mm 6 mps 730 mmHg 86%
21:00 +3°C° 0.1 mm 5 mps 730 mmHg 87%
22:00 +3°C° 0.1 mm 5 mps 730 mmHg 88%
23:00 +3°C° 0 mm 5 mps 730 mmHg 88%

23 January, Saturday

Time Temperature Precipitation Wind Pressure Humidity
00:00 +3°C° 0 mm 5 mps 731 mmHg 89%
01:00 +3°C° 0 mm 5 mps 731 mmHg 89%
02:00 +3°C° 0.2 mm 4 mps 731 mmHg 92%
03:00 +2°C° 0.2 mm 3 mps 731 mmHg 94%
04:00 +3°C° 0.2 mm 2 mps 731 mmHg 97%
05:00 +2°C° 0.4 mm 2 mps 731 mmHg 97%
06:00 +2°C° 0.4 mm 2 mps 731 mmHg 98%
07:00 +3°C° 0.4 mm 1 mps 731 mmHg 98%
08:00 +3°C° 0.2 mm 1 mps 731 mmHg 98%
09:00 +3°C° 0.2 mm 1 mps 731 mmHg 98%
10:00 +3°C° 0.2 mm 1 mps 731 mmHg 98%
11:00 +3°C° 0.1 mm 1 mps 731 mmHg 98%
12:00 +3°C° 0.1 mm 1 mps 732 mmHg 98%
13:00 +3°C° 0.1 mm 1 mps 732 mmHg 97%
14:00 +3°C° 0 mm 1 mps 731 mmHg 98%
15:00 +3°C° 0 mm 1 mps 731 mmHg 98%
16:00 +2°C° 0 mm 1 mps 731 mmHg 98%
17:00 +2°C° 0.1 mm 1 mps 731 mmHg 98%
18:00 +2°C° 0.1 mm 1 mps 731 mmHg 98%
19:00 +2°C° 0.1 mm 1 mps 731 mmHg 98%
20:00 +2°C° 0 mm 1 mps 731 mmHg 98%
21:00 +1°C° 0 mm 0 mps 731 mmHg 98%
22:00 +1°C° 0 mm 0 mps 731 mmHg 98%
23:00 +1°C° 0 mm 0 mps 731 mmHg 98%

24 January, Sunday

Time Temperature Precipitation Wind Pressure Humidity
00:00 +1°C° 0 mm 0 mps 730 mmHg 98%
01:00 +1°C° 0 mm 0 mps 730 mmHg 98%
02:00 +1°C° 0 mm 0 mps 730 mmHg 97%
03:00 +2°C° 0 mm 1 mps 730 mmHg 97%
04:00 +2°C° 0 mm 1 mps 729 mmHg 96%
05:00 +2°C° 0 mm 1 mps 729 mmHg 95%
06:00 +1°C° 0 mm 2 mps 729 mmHg 95%
07:00 -1°C° 0 mm 2 mps 729 mmHg 94%
08:00 0°C° 0 mm 3 mps 728 mmHg 88%
09:00 0°C° 0 mm 4 mps 728 mmHg 82%
10:00 +1°C° 0 mm 5 mps 728 mmHg 76%
11:00 +2°C° 0 mm 5 mps 728 mmHg 75%
12:00 +2°C° 0 mm 5 mps 727 mmHg 74%
13:00 +3°C° 0 mm 6 mps 727 mmHg 74%
14:00 +2°C° 0.1 mm 5 mps 727 mmHg 78%
15:00 +2°C° 0.1 mm 5 mps 726 mmHg 81%
16:00 +2°C° 0.1 mm 5 mps 726 mmHg 85%
17:00 +2°C° 0 mm 5 mps 726 mmHg 87%
18:00 +2°C° 0 mm 5 mps 726 mmHg 88%
19:00 +2°C° 0 mm 5 mps 726 mmHg 90%
20:00 +1°C° 0.4 mm 5 mps 727 mmHg 92%
21:00 0°C° 0.4 mm 5 mps 727 mmHg 94%
22:00 -2°C° 0.4 mm 6 mps 727 mmHg 95%
23:00 -2°C° 0.1 mm 6 mps 728 mmHg 95%
Show more